DW2659 Weather Reports


time (UTC)temp
C
wind
direction
speed
KPH
gust
KPH
rain 1hr
cm
rain 24hr
cm
rain mn
cm
humidity
%
barometer
mb
20260901025904 23 232 0.0 0.0 0.00 0.10 0.10 84 1019.2
20260901025403 23 232 0.0 0.0 0.00 0.10 0.10 83 1019.2
20260901024903 23 232 0.0 0.0 0.00 0.10 0.10 83 1019.2
20260901024404 23 232 0.0 0.0 0.00 0.10 0.10 83 1019.0
20260901023903 23 232 0.0 0.0 0.00 0.10 0.10 83 1019.0
20260901023403 23 232 0.0 0.0 0.00 0.10 0.10 83 1019.0
20260901022404 23 232 0.0 0.0 0.00 0.10 0.10 82 1019.0
20260901021903 23 232 0.0 0.0 0.00 0.10 0.10 82 1019.0
20260901021403 23 232 0.0 0.0 0.00 0.10 0.10 81 1019.1
20260901020904 23 232 0.0 0.0 0.00 0.10 0.10 81 1019.0
20260901015903 23 232 0.0 0.0 0.00 0.10 0.10 80 1018.8
20260901015405 24 232 0.0 0.0 0.00 0.10 0.10 80 1018.8
20260901014403 24 232 0.0 0.0 0.00 0.10 0.10 79 1018.4
20260901013903 24 232 0.0 1.6 0.00 0.10 0.10 79 1018.4
20260901013402 24 232 1.6 1.6 0.00 0.10 0.10 78 1018.4
20260901012404 24 232 1.6 3.2 0.00 0.10 0.10 78 1018.4
20260901011902 25 232 0.0 1.6 0.00 0.10 0.10 77 1018.4
20260901011402 25 232 0.0 0.0 0.00 0.10 0.10 77 1018.2
20260901010403 25 232 0.0 0.0 0.00 0.10 0.10 76 1018.2
20260901005902 25 232 0.0 0.0 0.00 0.10 0.10 75 1018.1
20260901005403 25 232 0.0 0.0 0.00 0.10 0.10 75 1018.1
20260901004904 25 232 0.0 0.0 0.00 0.10 0.10 74 1018.1
20260901004403 25 232 0.0 0.0 0.00 0.10 0.10 74 1017.9
20260901003903 26 232 0.0 0.0 0.00 0.10 0.10 74 1017.9
20260901003403 26 232 0.0 0.0 0.00 0.10 0.10 73 1017.9
20260901002904 26 232 0.0 0.0 0.00 0.10 0.10 73 1017.8
20260901002403 26 232 0.0 0.0 0.00 0.10 0.10 72 1017.8
20260901001903 26 232 0.0 0.0 0.00 0.10 0.10 72 1017.9
20260901001404 26 232 0.0 0.0 0.00 0.10 0.10 71 1017.9
20260901000902 26 232 0.0 0.0 0.00 0.10 0.10 69 1017.9
20260901000405 27 232 0.0 0.0 0.00 0.10 0.10 69 1017.9
20260831235903 27 232 0.0 0.0 0.00 0.10 0.10 69 1017.9
20260831235403 27 232 0.0 0.0 0.00 0.10 0.10 69 1017.9
20260831234903 27 232 0.0 0.0 0.00 0.10 0.10 67 1017.9
20260831234403 27 232 0.0 0.0 0.00 0.10 0.10 68 1017.9
20260831233403 28 232 0.0 0.0 0.00 0.10 0.10 66 1017.9
20260831232903 28 232 0.0 0.0 0.00 0.10 0.10 66 1017.8
20260831232404 28 232 0.0 0.0 0.00 0.10 0.10 66 1017.8
20260831231903 28 232 0.0 0.0 0.00 0.10 0.10 65 1017.9
20260831231402 28 232 0.0 0.0 0.00 0.10 0.10 64 1017.9
20260831230904 28 232 0.0 0.0 0.00 0.10 0.10 64 1017.9
20260831230402 29 232 0.0 0.0 0.00 0.10 0.10 64 1017.9
20260831225903 29 232 0.0 0.0 0.00 0.10 0.10 64 1018.0
20260831225404 29 232 0.0 0.0 0.00 0.10 0.10 63 1018.0
20260831224903 30 232 0.0 0.0 0.00 0.10 0.10 62 1018.0
20260831224403 30 232 0.0 0.0 0.00 0.10 0.10 61 1018.0
20260831223904 30 232 0.0 0.0 0.00 0.10 0.10 60 1018.0
20260831222903 31 232 0.0 0.0 0.00 0.10 0.10 56 1018.1
20260831222404 32 232 0.0 0.0 0.00 0.10 0.10 57 1018.1
20260831220903 33 232 0.0 1.6 0.00 0.10 0.10 53 1018.1
20260831220403 33 232 0.0 1.6 0.00 0.10 0.10 53 1018.1
20260831215903 33 232 0.0 1.6 0.00 0.10 0.10 54 1018.2
20260831215404 33 232 0.0 1.6 0.00 0.10 0.10 56 1018.2
20260831214403 34 232 0.0 1.6 0.00 0.10 0.10 53 1018.4
20260831213904 34 232 0.0 1.6 0.00 0.10 0.10 51 1018.4
20260831213403 35 232 0.0 3.2 0.00 0.10 0.10 49 1018.4
20260831212903 35 355 0.0 1.6 0.00 0.10 0.10 51 1018.6
20260831212404 35 355 1.6 1.6 0.00 0.10 0.10 49 1018.6
20260831211403 35 355 0.0 1.6 0.00 0.10 0.10 50 1018.6
20260831210905 36 355 1.6 1.6 0.00 0.10 0.10 50 1018.6
20260831210403 36 355 0.0 1.6 0.00 0.10 0.10 45 1018.6
20260831205404 35 355 1.6 3.2 0.00 0.10 0.10 41 1018.6
20260831204903 36 355 0.0 1.6 0.00 0.10 0.10 42 1018.8
20260831204404 36 355 0.0 1.6 0.00 0.10 0.10 44 1018.8
20260831203903 36 355 0.0 1.6 0.00 0.10 0.10 47 1018.8
20260831203405 36 355 0.0 1.6 0.00 0.10 0.10 48 1018.8
20260831202903 36 355 1.6 3.2 0.00 0.10 0.10 45 1019.0
20260831202403 36 355 0.0 3.2 0.00 0.10 0.10 44 1019.0
20260831201904 35 355 1.6 3.2 0.00 0.10 0.10 48 1019.0
20260831201403 35 355 1.6 4.8 0.00 0.10 0.10 46 1019.4
20260831200903 35 281 1.6 4.8 0.00 0.10 0.10 44 1019.4
20260831200404 35 77 3.2 4.8 0.00 0.10 0.10 44 1019.4
20260831195903 35 10 1.6 4.8 0.00 0.10 0.10 47 1019.4
20260831195403 35 10 1.6 3.2 0.00 0.10 0.10 50 1019.4
20260831194403 34 170 1.6 4.8 0.00 0.10 0.10 48 1019.6
20260831193903 35 45 1.6 4.8 0.00 0.10 0.10 46 1019.6
20260831193405 34 34 1.6 4.8 0.00 0.10 0.10 48 1019.6
20260831192903 33 223 0.0 4.8 0.00 0.10 0.10 48 1019.7
20260831192403 33 234 3.2 8.0 0.10 0.10 0.10 47 1019.7
20260831191403 33 28 1.6 3.2 0.10 0.10 0.10 52 1019.8
20260831190904 33 28 0.0 3.2 0.10 0.10 0.10 53 1019.8
20260831190404 34 46 1.6 3.2 0.10 0.10 0.10 49 1019.8
20260831185903 34 279 1.6 3.2 0.10 0.10 0.10 55 1019.9
20260831185403 34 260 0.0 3.2 0.10 0.10 0.10 52 1019.9
20260831184905 33 334 1.6 4.8 0.10 0.10 0.10 53 1019.9
20260831184403 33 25 3.2 4.8 0.10 0.10 0.10 53 1020.1
20260831183903 33 34 1.6 4.8 0.10 0.10 0.10 51 1020.1
20260831183404 33 200 4.8 8.0 0.10 0.10 0.10 50 1020.1
20260831182903 33 214 3.2 4.8 0.10 0.10 0.10 50 1020.3
20260831182403 33 110 3.2 4.8 0.00 0.00 0.00 49 1020.2
20260831180903 33 4 1.6 4.8 0.00 0.00 0.00 53 1020.4
20260831180405 33 60 1.6 3.2 0.00 0.00 0.00 55 1020.4
20260831175903 33 113 1.6 3.2 0.00 0.00 0.00 55 1020.5
20260831175403 33 272 1.6 4.8 0.00 0.00 0.00 53 1020.5
20260831173903 33 52 1.6 4.8 0.00 0.00 0.00 53 1021.1
20260831173405 33 323 1.6 3.2 0.00 0.00 0.00 54 1021.1
20260831172903 32 17 1.6 4.8 0.00 0.00 0.00 56 1021.1
20260831172403 32 136 3.2 4.8 0.00 0.00 0.00 54 1021.1
20260831171904 32 129 4.8 8.0 0.00 0.00 0.00 55 1021.1
20260831171403 32 83 1.6 8.0 0.00 0.00 0.00 57 1021.1
20260831170903 32 329 1.6 3.2 0.00 0.00 0.00 57 1021.1
20260831170405 31 84 1.6 4.8 0.00 0.00 0.00 59 1021.1
20260831165903 31 77 3.2 4.8 0.00 0.00 0.00 59 1021.1
20260831165403 31 2 1.6 4.8 0.00 0.00 0.00 67 1021.1
20260831164904 30 44 1.6 3.2 0.00 0.00 0.00 65 1021.1
20260831164404 30 253 1.6 1.6 0.00 0.00 0.00 69 1021.5
20260831163404 30 253 0.0 0.0 0.00 0.00 0.00 68 1021.5
20260831162904 30 253 0.0 1.6 0.00 0.00 0.00 67 1021.5
20260831162404 30 253 0.0 1.6 0.00 0.00 0.00 68 1021.5
20260831161905 30 253 0.0 4.8 0.00 0.00 0.00 66 1021.5
20260831161403 30 252 3.2 4.8 0.00 0.00 0.00 64 1021.5
20260831160903 30 261 3.2 4.8 0.00 0.00 0.00 65 1021.5
20260831160404 30 247 1.6 4.8 0.00 0.00 0.00 65 1021.5
20260831155403 30 93 4.8 8.0 0.00 0.00 0.00 63 1021.5
20260831154904 30 198 4.8 9.7 0.00 0.00 0.00 62 1021.5
20260831154404 30 61 1.6 4.8 0.00 0.00 0.00 64 1021.5
20260831153903 30 122 3.2 8.0 0.00 0.00 0.00 66 1021.5
20260831153404 30 132 6.4 8.0 0.00 0.00 0.00 63 1021.5
20260831152403 30 20 1.6 3.2 0.00 0.00 0.00 67 1021.6
20260831151903 30 63 3.2 4.8 0.00 0.00 0.00 67 1021.6
20260831151404 29 8 3.2 8.0 0.00 0.00 0.00 67 1021.6
20260831150904 29 120 4.8 8.0 0.00 0.00 0.00 67 1021.6
20260831150403 29 78 3.2 4.8 0.00 0.00 0.00 69 1021.6
20260831145403 28 53 1.6 4.8 0.00 0.00 0.00 69 1021.7
20260831144903 28 162 3.2 11.3 0.00 0.00 0.00 68 1021.5
20260831144405 28 100 4.8 9.7 0.00 0.00 0.00 68 1021.5
20260831143904 28 248 3.2 9.7 0.00 0.00 0.00 67 1021.5
20260831142905 28 191 4.8 9.7 0.00 0.00 0.00 67 1021.6
20260831142403 28 177 1.6 4.8 0.00 0.00 0.00 69 1021.6
20260831141904 28 188 6.4 9.7 0.00 0.00 0.00 70 1021.6
20260831141405 28 118 3.2 8.0 0.00 0.00 0.00 73 1021.5
20260831140903 28 230 3.2 9.7 0.00 0.00 0.00 71 1021.5
20260831140403 27 166 4.8 9.7 0.00 0.00 0.00 72 1021.5
20260831135403 27 149 4.8 9.7 0.00 0.00 0.00 76 1021.2
20260831134903 27 112 3.2 8.0 0.00 0.00 0.00 76 1021.2
20260831134404 26 149 1.6 4.8 0.00 0.00 0.00 79 1021.2
20260831133903 26 118 3.2 4.8 0.00 0.00 0.00 81 1021.2
20260831133403 25 156 1.6 4.8 0.00 0.00 0.00 84 1021.2
20260831132905 25 124 1.6 4.8 0.00 0.00 0.00 87 1021.2
20260831132403 24 167 1.6 4.8 0.00 0.00 0.00 89 1021.2
20260831131904 23 218 1.6 8.0 0.00 0.00 0.00 91 1021.2
20260831131405 23 202 1.6 4.8 0.00 0.00 0.00 94 1021.1
20260831130903 23 319 0.0 0.0 0.00 0.00 0.00 95 1021.1
20260831130403 22 319 0.0 0.0 0.00 0.00 0.00 95 1021.1
20260831125904 22 319 0.0 0.0 0.00 0.00 0.00 95 1021.1
20260831125403 22 319 0.0 0.0 0.00 0.00 0.00 95 1021.1
20260831124904 22 319 0.0 0.0 0.00 0.00 0.00 95 1021.1
20260831123404 21 319 0.0 0.0 0.00 0.00 0.00 95 1021.0
20260831122905 21 319 0.0 0.0 0.00 0.00 0.00 95 1020.9
20260831122404 21 319 0.0 0.0 0.00 0.00 0.00 95 1020.9
20260831120903 20 319 0.0 0.0 0.00 0.00 0.00 94 1020.9
20260831120403 20 319 0.0 0.0 0.00 0.00 0.00 94 1020.9
20260831115905 20 319 0.0 0.0 0.00 0.00 0.00 94 1020.8
20260831115403 20 319 0.0 0.0 0.00 0.00 0.00 94 1020.8
20260831114903 20 319 0.0 0.0 0.00 0.00 0.00 94 1020.8
20260831114404 20 319 0.0 0.0 0.00 0.00 0.00 94 1020.7
20260831113904 20 319 0.0 0.0 0.00 0.00 0.00 94 1020.7
20260831113404 20 319 0.0 0.0 0.00 0.00 0.00 94 1020.7
20260831112404 20 319 0.0 0.0 0.00 0.00 0.00 94 1020.5
20260831111903 20 319 0.0 0.0 0.00 0.00 0.00 94 1020.5
20260831111404 20 319 0.0 0.0 0.00 0.00 0.00 93 1020.4
20260831110404 20 319 0.0 0.0 0.00 0.00 0.00 93 1020.4
20260831105905 20 319 0.0 1.6 0.00 0.00 0.00 93 1020.0
20260831105404 20 319 0.0 1.6 0.00 0.00 0.00 94 1020.0
20260831104405 20 319 0.0 1.6 0.00 0.00 0.00 94 1020.0
20260831103903 20 319 1.6 3.2 0.00 0.00 0.00 94 1020.0
20260831103404 20 319 0.0 1.6 0.00 0.00 0.00 94 1020.0
20260831102905 20 319 1.6 3.2 0.00 0.00 0.00 94 1019.9
20260831102404 20 319 1.6 3.2 0.00 0.00 0.00 94 1019.9
20260831101904 20 319 1.6 3.2 0.00 0.00 0.00 94 1019.7
20260831101405 20 319 0.0 1.6 0.00 5.08 0.00 94 1019.7
20260831100404 20 319 0.0 3.2 0.00 5.08 0.00 94 1019.7
20260831095904 20 319 0.0 1.6 0.00 5.08 0.00 93 1019.6
20260831095403 20 319 0.0 0.0 0.00 5.08 0.00 93 1019.6
20260831094903 21 319 0.0 0.0 0.00 5.08 0.00 93 1019.6
20260831094405 21 319 0.0 0.0 0.00 5.08 0.00 93 1019.5
20260831093903 21 319 0.0 0.0 0.00 5.08 0.00 93 1019.5
20260831093403 21 319 0.0 0.0 0.00 5.08 0.00 93 1019.5
20260831092905 21 319 0.0 0.0 0.00 5.08 0.00 93 1019.5
20260831092404 21 319 0.0 0.0 0.00 5.08 0.00 93 1019.5
20260831091903 21 319 0.0 0.0 0.00 5.08 0.00 93 1019.5
20260831091404 21 319 0.0 0.0 0.00 5.08 0.00 94 1019.5
20260831090904 21 319 0.0 0.0 0.00 5.08 0.00 93 1019.5
20260831090404 21 319 0.0 0.0 0.00 5.08 0.00 93 1019.5
20260831085905 21 319 0.0 0.0 0.00 5.08 0.00 93 1019.4
20260831085403 21 319 0.0 0.0 0.00 5.08 0.00 93 1019.4
20260831084904 21 319 0.0 0.0 0.00 5.08 0.00 93 1019.3
20260831083904 21 319 0.0 0.0 0.00 5.08 0.00 93 1019.4
20260831083404 21 319 0.0 0.0 0.00 5.08 0.00 93 1019.4
20260831082905 21 319 0.0 0.0 0.00 5.08 0.00 93 1019.3
20260831082404 21 319 0.0 0.0 0.00 5.08 0.00 93 1019.2
20260831081903 21 319 0.0 0.0 0.00 5.08 0.00 93 1019.2
20260831081403 21 319 0.0 0.0 0.00 5.08 0.00 93 1019.2
20260831080902 21 319 0.0 0.0 0.00 5.08 0.00 93 1019.1
20260831075904 21 319 0.0 0.0 0.00 5.08 0.00 93 1019.1
20260831075402 21 319 0.0 0.0 0.00 5.08 0.00 93 1019.1
20260831074902 21 319 0.0 0.0 0.00 5.08 0.00 93 1019.1
20260831074403 21 319 0.0 0.0 0.00 5.08 0.00 93 1019.2
20260831073902 21 319 0.0 0.0 0.00 5.08 0.00 93 1019.2
20260831073402 21 319 0.0 0.0 0.00 5.08 0.00 93 1019.2
20260831072904 21 319 0.0 0.0 0.00 5.08 0.00 93 1019.3
20260831071902 21 319 0.0 0.0 0.00 5.08 0.00 93 1019.3
20260831071404 21 319 0.0 0.0 0.00 5.08 0.00 93 1019.3
20260831070902 21 319 0.0 0.0 0.00 5.08 0.00 93 1019.3
20260831070402 21 319 0.0 0.0 0.00 5.08 0.00 93 1019.3
20260831065402 21 319 0.0 0.0 0.00 5.08 0.00 93 1019.3
20260831064903 21 319 0.0 0.0 0.00 5.08 0.00 93 1019.3
20260831063402 21 319 0.0 0.0 0.00 5.08 0.00 93 1019.3
20260831062904 21 319 0.0 0.0 0.00 5.08 0.00 93 1019.3
20260831062402 21 319 0.0 0.0 0.00 5.08 0.00 93 1019.3
20260831061902 21 319 0.0 0.0 0.00 5.08 0.00 93 1019.3
20260831061404 21 319 0.0 0.0 0.00 5.08 0.00 93 1019.4
20260831060902 21 319 0.0 0.0 0.00 5.08 0.00 93 1019.4
20260831060403 21 319 0.0 0.0 0.00 5.08 0.00 93 1019.4
20260831055903 21 319 0.0 0.0 0.00 5.08 0.00 92 1019.4
20260831055402 21 319 0.0 0.0 0.00 5.08 0.00 92 1019.5
20260831054903 22 319 0.0 1.6 0.00 5.08 0.00 92 1019.5
20260831054404 22 319 0.0 1.6 0.00 5.08 0.00 92 1019.6
20260831053902 22 319 0.0 0.0 0.00 5.08 0.00 92 1019.6
20260831053402 22 319 1.6 1.6 0.00 5.08 0.00 92 1019.6
20260831052402 22 319 1.6 1.6 0.00 5.08 0.00 92 1019.7
20260831051404 22 319 0.0 0.0 0.00 5.08 0.00 92 1019.4
20260831050902 22 319 1.6 1.6 0.00 5.08 0.00 92 1019.6
20260831045903 22 319 0.0 0.0 0.00 5.08 0.00 92 1019.6
20260831045404 22 319 0.0 0.0 0.00 5.08 0.00 92 1019.6
20260831044902 22 319 0.0 0.0 0.00 5.08 0.00 92 1019.6
20260831044402 22 319 0.0 0.0 0.00 5.08 0.00 92 1019.6
20260831043905 22 319 0.0 0.0 0.00 5.08 0.00 92 1019.6
20260831043403 22 319 0.0 0.0 0.00 5.08 0.00 92 1019.6
20260831042403 22 319 0.0 0.0 0.00 5.08 0.00 91 1019.6
20260831041902 22 319 0.0 0.0 0.00 5.08 0.00 91 1019.5
20260831041403 22 319 0.0 0.0 0.00 5.08 0.00 91 1019.7
20260831040903 22 319 0.0 0.0 0.00 5.08 0.00 91 1019.7
20260831040402 22 319 0.0 0.0 0.00 5.08 0.00 91 1019.7
20260831035902 22 319 0.0 0.0 0.00 5.08 0.00 91 1019.7
20260831035404 22 319 0.0 0.0 0.00 5.08 0.00 91 1019.8
20260831034902 22 319 0.0 1.6 0.00 5.08 0.00 91 1019.8
20260831034403 22 319 1.6 1.6 0.00 5.08 0.00 91 1019.6
20260831033904 22 319 0.0 0.0 0.00 5.08 0.00 91 1019.7
20260831033403 22 319 0.0 0.0 0.00 5.08 0.00 91 1019.7
20260831032902 22 319 0.0 0.0 0.00 5.08 0.00 91 1019.7
20260831032404 22 319 0.0 0.0 0.00 5.08 0.00 88 1019.7
20260831031903 22 319 0.0 0.0 0.00 5.08 0.00 88 1019.7
20260831031403 22 319 0.0 0.0 0.00 5.08 0.00 88 1019.7
20260831030903 22 319 0.0 0.0 0.00 5.08 0.00 88 1019.7